Location: Petruro
(41.0333°N, 14.7833°E)
Time: 07:28:48
(UTC+00:00)

Daily predictions for brighter satellites

Satellite Brightness Start Highest point End
(mag) Time Altitude Azimuth Time Altitude Azimuth Time Altitude Azimuth
Meteor 1-11 4.3 16:22:27 10° N 16:28:10 68° E 16:33:55 10° SSE
CORIOLIS 4.1 16:24:21 10° SSE 16:29:40 73° ENE 16:35:01 10° N
COSMOS 2487 3.2 16:26:54 10° NNW 16:30:17 57° WSW 16:33:39 10° S
FengYun 1-2 T 4.4 16:25:16 10° SSE 16:30:47 57° ENE 16:36:18 10° N
Cosmos 1340 4.0 16:28:12 10° NNE 16:31:01 19° ENE 16:33:48 10° ESE
Cosmos 1110 Rocket 4.1 16:27:01 10° SSW 16:32:16 84° WNW 16:37:32 10° NNE
COSMO-SKYMED 1 3.3 16:29:14 10° NNE 16:33:07 31° E 16:36:59 10° SSE
Cosmos 1302 Rocket 4.3 16:29:41 10° S 16:34:40 46° ESE 16:39:42 10° NNE
H-2A R/B 3.4 16:31:05 10° N 16:35:01 41° WNW 16:38:51 10° SW
Lacrosse 5 4.1 16:36:34 10° NW 16:39:13 14° N 16:41:51 10° NNE
Envisat 4.1 16:36:13 10° S 16:41:06 49° W 16:46:03 10° NNW
Cosmos 292 Rocket 3.7 16:36:47 10° SSW 16:41:34 82° ESE 16:46:24 10° NNE
Timation 2 Rocket 4.2 16:35:29 10° NNW 16:42:03 59° ENE 16:48:46 10° SE
Aureole 3 3.5 16:39:15 10° SSE 16:42:10 31° E 16:44:53 10° NNE
Cosmos 1825 Rocket 3.5 16:38:13 10° N 16:42:42 85° E 16:47:05 10° S
Okean O Rocket 2.0 16:38:55 10° S 16:43:15 68° WSW 16:47:36 10° NNW
SAR-Lupe-1 4.3 16:41:34 10° NNE 16:45:03 48° E 16:48:32 10° S
ADEOS Rocket 4.2 16:39:01 10° N 16:45:15 52° WNW 16:52:08 10° SW
YAOGAN 1 3.9 16:42:13 10° ESE 16:45:19 20° ENE 16:48:26 10° NNE
USA 281 3.4 16:39:17 10° SSE 16:45:51 79° WSW 16:52:28 10° NNW
Meteor 2-21 Rocket 4.4 16:41:29 10° N 16:47:40 75° E 16:53:45 10° SSE
FALCON 9 DEB 3.8 16:44:40 10° WSW 16:47:48 47° NW 16:50:56 10° NE
Feng Yun 1-1 Rocket 4.4 16:45:37 10° SSE 16:51:26 66° ENE 16:57:19 10° N
CZ-2C R/B 4.1 16:46:37 10° SE 16:51:29 29° ENE 16:56:16 10° N
FALCON 9 DEB 4.0 16:49:02 10° WSW 16:52:05 40° NNW 16:55:08 10° NE
SMAP 3.9 16:47:34 10° S 16:52:07 55° W 16:56:42 10° NNW
Cosmos 1455 3.7 16:51:57 10° SE 16:54:24 17° E 16:56:10 13° NE
Cosmos 1726 Rocket 3.6 16:51:04 10° S 16:55:24 86° W 16:59:48 10° N
Cosmos 2219 3.4 16:51:39 10° NNW 16:57:15 49° ENE 17:02:48 10° SE
Cosmos 1553 Rocket 4.2 16:52:06 10° SSE 16:58:10 49° E 17:04:11 10° NNE
Meteor 2-10 Rocket 4.1 16:56:28 10° SSE 17:01:13 33° E 17:05:50 10° NNE
Cosmos 2228 4.0 16:58:24 10° SSW 17:02:31 50° W 17:06:42 10° N
Cosmos 1939 Rocket 2.8 16:59:12 10° SSE 17:03:07 61° ENE 17:07:00 10° N
FALCON 9 DEB 4.3 17:01:06 10° W 17:04:06 35° NNW 17:06:44 12° NE
CZ-4B R/B 2.9 17:03:59 10° N 17:06:58 36° WNW 17:09:52 10° SW
USA 308 4.5 17:04:13 10° NNW 17:07:32 21° NNE 17:09:20 17° NE
Helios 1A Rocket 3.1 17:06:18 10° SSE 17:10:17 49° ENE 17:14:16 10° N
Cosmos 1992 Rocket 4.4 17:08:58 10° S 17:13:48 40° ESE 17:18:39 10° NE
ARGOS 4.2 17:13:09 20° E 17:15:03 24° ENE 17:19:16 10° NNE
Okean-O 2.7 17:12:25 10° SSE 17:16:43 53° ENE 17:21:02 10° N
Cosmos 2369 4.2 17:11:36 10° S 17:16:45 36° ESE 17:21:09 14° NE
OAO 2 Rocket 4.2 17:14:25 10° SW 17:18:58 36° S 17:21:36 21° ESE
Meteor 2-15 4.5 17:13:05 10° S 17:19:02 56° E 17:25:02 10° NNE
Cosmos 1656 3.6 17:14:42 10° SSW 17:20:15 86° ESE 17:25:55 10° NNE
SKYMED 2 3.7 17:16:56 10° N 17:21:17 76° WNW 17:25:36 10° SSW
Cosmos 1689 Rocket 2.5 17:19:36 10° N 17:22:26 59° WNW 17:25:16 10° SSW
Cosmos 1400 Rocket 3.3 17:18:43 10° SSW 17:22:49 65° W 17:26:53 10° N
SL-08 R/B 4.4 17:17:38 10° N 17:23:49 71° E 17:29:54 10° SSE
H-2A R/B 2.6 17:19:34 10° SE 17:24:30 37° ENE 17:29:29 10° N
GEOS 3 Rocket 4.4 17:24:33 25° E 17:26:37 34° NE 17:31:24 10° NNW
Cosmos 1745 Rocket 4.1 17:20:52 10° N 17:27:02 54° E 17:33:13 10° SSE
CZ-4 R/B 1.2 17:23:14 10° SSE 17:27:05 61° ENE 17:30:55 10° N
PSLV R/B 4.1 17:25:23 10° N 17:29:33 73° WNW 17:33:40 10° SSW
Cosmos 220 Rocket 3.9 17:26:23 10° S 17:30:40 62° ESE 17:34:08 16° NNE
Geosat 4.1 17:26:30 12° NE 17:31:01 55° ESE 17:35:55 10° S
Cosmos 2227 Rocket 2.1 17:25:34 10° NNW 17:31:14 70° ENE 17:36:51 10° SSE
Cosmos 2058 3.0 17:27:37 10° N 17:31:36 49° E 17:35:16 12° SSE
Atlas Centaur 2 3.9 17:25:15 10° SW 17:32:45 37° S 17:37:33 21° ESE
CSL-04 Rocket 4.0 17:27:33 10° SE 17:32:46 45° ENE 17:38:00 10° N
Cosmos 1892 2.6 17:29:03 10° N 17:32:56 75° E 17:36:48 10° SSE
Cosmos 2263 Rocket 4.0 17:33:28 10° NNE 17:35:34 14° NE 17:35:34 14° NE
Cosmos 1408 2.6 17:33:32 10° N 17:37:07 52° E 17:37:15 51° E
Meteor 2-1 Rocket 4.1 17:34:03 10° S 17:39:30 67° E 17:44:59 10° NNE
Cosmos 1386 Rocket 4.5 17:34:07 10° N 17:40:30 66° E 17:46:46 10° SSE
CZ-4C R/B 4.5 17:38:52 10° N 17:42:50 16° NNE 17:44:25 15° NE
Cosmos 2058 Rocket 4.5 17:40:16 10° SSW 17:44:28 40° WNW 17:48:45 10° N
Cosmos 1697 Rocket 2.5 17:39:15 10° SSW 17:44:49 73° ESE 17:49:37 14° NNE
CZ-2D R/B 4.0 17:42:21 10° S 17:46:05 53° W 17:49:49 10° NNW
SeaSat 1 3.3 17:46:28 31° NE 17:46:28 31° NE 17:50:27 10° N
SL-4 R/B 3.7 17:46:42 10° NNW 17:49:04 19° N 17:49:04 19° N
NOSS 3-3 (A) 3.7 17:44:09 10° SSW 17:49:50 84° SE 17:54:18 21° NE
NOSS 3-3 (C) 3.8 17:44:14 10° SSW 17:49:59 84° ESE 17:54:24 21° NE
Cosmos 1346 Rocket 2.7 17:47:52 10° N 17:51:54 89° ESE 17:54:07 25° S
USA 215 4.4 17:51:39 23° NE 17:53:41 27° NNE 17:59:01 10° NW
CRYOSAT 2 4.2 17:48:54 10° N 17:53:47 77° E 17:58:38 10° S
USA 305 3.8 17:49:49 10° NW 17:53:27 34° NNE 17:53:27 34° NNE
Cosmos 1315 Rocket 2.7 17:50:02 10° S 17:53:58 87° WNW 17:56:19 24° N
Cosmos 1825 4.1 17:50:26 10° N 17:51:38 19° N 17:51:38 19° N
SJ-11-01 4.1 17:53:43 33° SSE 17:55:45 71° ENE 18:00:24 10° N
Cosmos 1709 Rocket 4.1 17:50:36 10° N 17:56:50 52° ENE 17:59:42 31° SE
USA 306 3.8 17:56:12 10° NW 17:59:35 35° N 17:59:35 35° N
BREEZE-M R/B 4.5 17:59:13 10° NW 18:03:39 45° NNE 18:05:18 38° ENE
ATLAS 2AS CENTAUR R/B 3.7 17:58:25 10° NNW 18:04:48 29° NE 18:05:17 28° NE
Cosmos 968 Rocket 3.8 18:01:19 10° NNW 18:06:28 63° WSW 18:11:24 11° S
Cosmos 1980 Rocket 2.1 18:01:59 10° S 18:07:19 58° ESE 18:07:19 58° ESE
Cosmos 883 Rocket 4.3 18:03:02 10° S 18:09:11 77° E 18:15:19 10° N
MOS 1 Rocket 3.5 18:05:30 10° N 18:10:13 75° WNW 18:15:13 10° SSW
Cosmos 2297 Rocket 3.2 18:05:36 10° NW 18:10:58 45° WSW 18:16:18 10° S
Cosmos 1076 Rocket 3.5 18:07:37 10° N 18:11:36 73° NW 18:11:36 73° NW
CSL-04 Debris 4.2 18:07:46 10° S 18:13:11 78° WSW 18:18:41 10° NNW
Cosmos 2315 Rocket 3.8 18:07:04 10° S 18:13:12 68° E 18:19:21 10° NNE
S3M 4.4 18:07:47 10° SSW 18:13:48 60° W 18:19:55 10° N
YAOGAN 1 4.0 18:17:08 10° SSW 18:21:08 37° W 18:25:11 10° NNW
Cosmos 2360 4.4 18:18:01 10° SSW 18:23:44 72° WNW 18:26:14 35° NNE
Lacrosse 5 4.0 18:21:13 10° NNW 18:23:30 15° N 18:23:30 15° N
Cosmos 1812 Rocket 4.5 18:24:36 10° SSW 18:28:51 47° W 18:30:37 30° NNW
Cosmos 1455 4.1 18:26:27 10° SW 18:29:45 29° WNW 18:31:13 22° NW
Milstar 3 3.9 18:25:20 10° WSW 18:30:58 29° S 18:31:53 28° S
CZ-2C R/B 4.4 18:25:38 10° SSW 18:31:06 42° W 18:36:30 10° NNW
Cosmos 44 Rocket 4.0 18:31:48 10° SW 18:35:27 49° WSW 18:35:27 49° WSW
Cosmos 1503 Rocket 4.4 18:31:39 10° NNW 18:36:47 58° WSW 18:37:11 56° SW
Cosmos 2278 3.7 18:31:17 10° SSW 18:36:46 76° W 18:36:46 76° W
Cosmos 2082 4.5 18:44:35 10° NW 18:50:05 48° WSW 18:50:45 46° SW
ARGOS 4.0 18:54:41 47° WSW 18:54:59 47° W 19:00:13 10° NNW
H-2A R/B 3.9 18:59:18 10° SSW 19:03:55 29° W 19:08:37 10° NW
Cosmos 2263 Rocket 4.2 19:15:36 10° NNW 19:17:16 20° NNW 19:17:16 20° NNW
Atlas Centaur 2 4.0 19:14:10 10° WSW 19:20:08 35° SSW 19:20:08 35° SSW
CZ-4C R/B 4.2 19:26:16 10° NNW 19:29:36 28° N 19:29:36 28° N
ATLAS 2AS CENTAUR R/B 4.3 19:49:09 10° NW 19:52:43 31° NW 19:52:43 31° NW
